Location: Newark
(25.4800°N, 85.7200°E)
Time: 19:06:59
(UTC+00:00)

Explorer 11/Cluster Stage 4 - Pass Details

Date: 28 August 2019
Orbit: 467 x 1259 km, 28.8° (Epoch: 14 October)

Event Time Altitude Azimuth Distance (km) Brightness Sun altitude
Rises 07:10:39 0° 284° (WNW) 4,160 10.4 70.0°
Reaches altitude 10° 07:13:33 10° 283° (WNW) 3,223 10.0 69.6°
Maximum altitude 07:21:49 75° 200° (SSW) 1,273 10.0 68.3°
Drops below altitude 10° 07:29:35 10° 116° (ESE) 3,031 9.6 67.0°
Sets 07:32:14 0° 114° (ESE) 3,902 10.0 66.5°
